Flag for Mozambique Weather past 2 weeks in Maputo, Mozambique

Now
75 °F

Passing clouds.


Feels Like: 75 °F
Forecast: 71 / 89 °F
Wind: 9 mph from Southwest

Location: Maputo / Mavalane

Current Time: Feb 28, 2015 at 12:43:19 AM

Latest Report: Feb 27, 2015 at 11:00 PM


Visibility: N/A

Pressure: 29.95 "Hg

Humidity: 89%

Dew point: 72 °F

Location of MaputoLocation

Historic Weather in Maputo — Graph

°F

Maputo temperature yesterday

Maximum temperature yesterday: 90 °F (at 12:00 PM)
Minimum temperature yesterday: 75 °F (at 11:00 PM)
Average temperature yesterday: 82 °F

Past Weeks' High & Low Weather Summary

 TemperatureHumidityPressure
High100 °F (Feb 14, 3:00 PM)94% (Feb 13, 6:00 AM)30.18 "Hg (Feb 13, 6:00 AM)
Low64 °F (Feb 18, 6:00 AM)29% (Feb 18, 12:00 PM)29.56 "Hg (Feb 14, 5:00 PM)
Average80 °F67%29.93 "Hg
* Reported Midnight between Feb 12 and Feb 13 — Feb 27 11:00 PM, Maputo, Weather by CustomWeather, © 2015

Note: Actual official high and low records may vary slightly from our data, if they occured in-between our weather recording intervals... More about our weather records

Advertising

Maputo weather history for previous 24 hours

 ConditionsComfort  
Time TempWeatherWind HumidityBarometerVisibility
11:00 PM
Fri, Feb 27
75 °FPassing clouds.9 mph89%29.95 "HgN/A
9:00 PM77 °FPassing clouds.7 mph79%29.95 "HgN/A
8:00 PM77 °FThunderstorms. Passing clouds.10 mph79%29.92 "HgN/A
7:00 PM79 °FThunderstorms. Overcast.7 mph74%29.92 "HgN/A
6:00 PM82 °FPassing clouds.8 mph70%29.92 "HgN/A
5:00 PM82 °FPartly sunny.13 mph70%29.86 "HgN/A
4:00 PM86 °FPartly sunny.15 mph62%29.83 "HgN/A
3:00 PM88 °FScattered clouds.14 mph55%29.83 "HgN/A
1:00 PM90 °FScattered clouds.8 mph52%29.86 "HgN/A
12:00 PM90 °FScattered clouds.5 mph49%29.89 "HgN/A
11:00 AM88 °FPartly sunny.5 mph49%29.89 "HgN/A
10:00 AM84 °FPartly sunny.6 mph62%29.89 "HgN/A
9:00 AM84 °FScattered clouds.9 mph62%29.89 "HgN/A
8:00 AM79 °FPartly sunny.9 mph74%29.89 "HgN/A
7:00 AM77 °FPartly sunny.6 mph89%29.89 "HgN/A
6:00 AM77 °FPartly sunny.3 mph89%29.86 "HgN/A
5:00 AM77 °FScattered clouds.2 mph89%29.86 "HgN/A
Weather by CustomWeather, © 2015

See weather overviewHow to use our weather pages